Theta_e
297 297 297 297 297 297 296 296 296 296 296 295 295 295 295 295 295 295 296 296 296 296 296 297 298 298 298 300 301 301 302 302 302 303 304 305 305 306 309 311 311 311 313 315 317 318 320 321 322 323 324 325 329 334 339 339 339 341 342 342 343 345 345 345 345 345 344 343 343 343 343 344 344 344 344 343 344 344 344 343 343 343 342 342 341
296 296 296 296 296 297 296 296 295 295 295 294 294 294 294 294 295 295 295 295 295 295 295 296 296 297 297 298 298 298 300 300 302 302 302 303 304 304 307 309 311 310 311 312 315 317 318 320 322 323 324 325 325 328 332 337 338 339 341 342 342 344 344 345 344 344 344 343 343 343 342 343 344 344 344 344 344 343 344 344 343 343 342 342 341
296 296 295 296 296 295 295 295 295 294 294 294 294 294 294 294 294 294 294 294 294 295 295 295 295 296 297 297 297 297 298 299 299 301 301 302 302 303 305 307 310 310 310 311 312 314 316 317 319 322 323 323 324 325 326 330 334 339 339 340 341 343 344 344 344 344 344 344 343 342 342 341 342 343 343 343 343 343 343 343 343 342 342 342 341
296 296 295 295 294 294 295 294 294 294 293 293 293 294 294 294 294 294 294 294 294 294 295 294 294 295 296 295 296 296 296 297 298 299 300 301 301 302 302 304 306 309 310 310 311 312 313 315 316 318 320 322 323 324 324 323 326 331 338 340 340 342 343 344 344 343 343 344 343 341 341 341 341 341 342 342 342 342 342 342 343 342 341 341 340
295 295 294 294 294 294 294 294 294 293 293 293 293 293 293 293 293 294 294 294 293 294 295 294 293 294 294 295 295 295 296 296 296 297 297 299 299 300 301 303 303 305 307 309 310 310 311 312 313 315 317 319 321 322 324 325 325 329 333 337 340 340 341 343 343 343 342 341 343 342 341 341 341 341 342 342 342 342 341 341 341 341 340 340 340
294 294 294 293 293 293 293 293 293 292 292 293 292 292 292 292 292 292 293 292 292 292 292 292 292 293 293 294 294 294 295 295 295 296 297 297 298 299 300 301 301 302 304 306 308 310 310 311 312 313 315 316 318 321 323 324 324 324 327 332 335 338 339 340 342 343 343 342 342 342 341 341 341 340 341 341 342 342 341 341 340 341 340 340 340
294 293 293 293 292 292 292 292 292 292 291 292 291 292 292 291 291 291 291 291 291 291 291 291 291 292 292 293 293 294 294 294 295 296 296 297 297 298 299 300 301 302 303 303 303 306 310 309 310 311 312 313 314 316 318 321 323 326 330 330 333 335 338 338 340 340 342 343 342 341 341 341 341 341 341 341 341 342 342 341 341 341 341 340 340
293 293 292 292 291 291 291 292 292 291 291 291 291 291 291 291 291 291 289 289 290 290 291 290 291 291 292 292 292 292 293 293 294 295 296 297 297 297 298 299 300 301 302 301 301 303 306 308 308 310 311 311 313 314 317 319 320 320 320 325 332 334 335 338 338 338 340 341 341 341 341 341 340 341 341 341 341 341 341 340 340 340 340 340 339
293 292 291 291 291 291 291 291 291 290 290 290 290 291 290 290 290 290 290 288 288 289 289 289 289 290 291 291 292 292 292 293 294 295 297 296 297 297 298 299 301 302 301 302 302 303 304 307 310 309 308 308 310 311 313 315 317 320 322 321 321 325 334 335 336 338 338 340 340 341 341 341 340 340 340 341 341 340 341 340 339 339 339 339 338
292 292 291 291 291 291 291 291 291 290 290 290 289 290 290 290 289 289 289 288 287 287 287 288 289 289 289 290 291 291 292 293 294 295 295 295 296 297 298 299 300 301 302 302 302 302 303 304 306 308 307 309 311 311 313 314 315 318 319 321 322 322 322 328 333 335 336 337 339 340 340 341 341 341 340 341 341 341 341 340 340 339 340 339 339
292 292 291 290 290 290 290 291 290 289 289 289 289 290 290 289 288 288 289 289 288 288 288 288 288 288 288 289 290 291 293 294 295 295 295 296 296 298 299 299 300 301 301 302 302 303 303 303 303 303 304 306 309 309 310 312 313 314 316 320 323 324 324 322 329 332 335 336 336 338 340 341 341 341 341 340 341 341 341 340 340 340 338 337 338
292 291 291 290 290 290 290 290 290 289 288 288 288 288 288 287 287 287 287 287 288 288 288 288 287 287 288 290 291 291 291 292 293 293 295 296 297 297 297 299 300 301 302 302 302 302 302 303 302 303 303 305 308 309 309 309 311 311 313 315 317 321 325 325 328 330 331 335 336 336 339 341 341 341 341 340 340 341 340 339 340 339 339 339 338
291 291 290 290 289 289 290 289 289 289 288 288 288 288 288 287 287 287 286 286 287 288 288 288 286 286 288 287 288 290 291 292 292 293 294 295 296 297 298 299 299 300 300 300 301 301 301 302 302 303 303 304 304 306 309 311 310 313 313 315 317 318 321 323 326 330 330 332 335 336 336 336 340 341 341 340 341 341 341 341 340 340 340 339 339
291 291 290 290 289 289 289 288 288 288 288 288 287 288 287 287 287 286 287 285 285 287 287 287 285 283 282 283 286 290 291 291 291 293 295 297 298 298 296 296 296 297 296 295 297 299 300 300 300 300 302 304 304 304 305 305 308 312 313 315 317 319 322 323 324 324 327 330 333 335 335 337 337 338 341 341 341 341 341 341 340 340 340 339 338
291 291 290 290 289 288 288 288 288 288 287 287 287 287 287 287 287 285 284 286 285 288 288 288 283 284 284 283 282 281 287 290 294 295 293 292 291 290 291 292 294 295 295 295 296 297 299 299 299 300 301 301 302 302 302 301 304 305 309 310 314 318 320 322 326 327 328 330 330 333 336 337 339 338 339 341 341 341 341 342 341 341 339 338 339
291 290 290 289 289 288 288 288 287 288 287 286 286 286 287 287 286 286 285 283 284 285 287 287 286 284 280 281 280 282 280 285 285 287 289 288 289 290 293 294 294 295 295 294 295 295 296 296 297 300 300 300 300 299 300 301 302 301 301 302 305 309 311 317 324 327 328 330 330 331 333 337 337 339 338 338 341 341 342 342 342 340 340 339 339
290 290 289 289 289 288 288 287 287 287 287 286 285 286 286 286 286 285 285 283 282 284 285 286 286 287 283 280 280 280 280 281 282 282 287 288 290 289 289 290 291 292 292 293 295 295 295 296 297 298 299 299 300 300 300 300 300 301 301 300 302 306 312 318 321 324 328 329 330 330 331 334 334 337 337 336 338 341 342 342 341 341 340 340 339
290 289 289 288 288 288 288 287 287 286 287 286 286 286 286 286 286 285 284 285 283 282 282 286 286 286 286 285 283 280 279 281 281 278 285 286 286 288 289 289 290 290 291 291 292 293 294 294 295 296 297 297 297 297 298 298 299 301 302 303 307 309 309 311 314 318 324 328 327 329 329 331 335 338 338 338 336 337 341 342 342 342 341 340 339
289 289 288 288 288 287 287 287 286 286 286 286 285 285 285 286 286 285 284 285 284 281 282 283 284 285 286 285 285 285 284 281 278 280 277 282 285 285 286 288 289 289 290 291 292 293 293 294 294 295 295 296 297 297 297 298 299 299 300 301 305 307 306 307 309 311 315 321 324 326 329 330 331 334 337 338 337 335 339 341 341 340 337 337 338
289 289 288 288 287 287 287 286 286 286 286 285 285 285 285 286 285 285 285 284 284 282 282 282 281 282 284 283 284 284 284 284 283 280 278 277 279 285 286 287 288 288 289 289 289 290 290 292 293 293 294 295 296 296 296 297 299 300 299 302 305 307 308 308 308 308 309 311 317 324 327 330 329 331 336 337 338 337 336 338 340 340 339 339 338
288 288 288 287 287 286 286 286 285 285 285 285 285 285 285 284 284 284 284 284 284 283 282 281 282 281 281 282 282 282 283 283 283 283 280 278 278 279 281 285 286 286 287 288 289 290 291 291 292 292 293 293 294 294 295 295 296 298 300 302 305 308 308 307 309 309 310 310 315 317 320 324 330 330 332 334 335 337 337 335 336 341 340 340 340
288 288 287 287 286 286 285 285 285 285 285 285 285 284 284 284 284 284 284 283 283 283 282 282 282 282 282 281 280 280 280 280 281 281 281 281 277 278 280 280 279 283 286 286 288 289 289 289 289 291 291 292 293 294 295 296 296 298 299 301 304 305 306 306 307 307 308 309 310 311 314 317 322 329 332 333 335 335 337 336 334 337 341 339 340
287 287 287 286 286 285 285 285 285 284 284 284 283 284 284 284 284 283 283 282 282 282 282 282 282 281 281 281 280 280 279 278 279 280 280 278 278 278 280 280 280 279 283 286 286 286 287 288 289 290 291 291 292 293 293 294 295 297 298 300 302 304 305 306 305 307 309 310 311 311 313 313 316 320 327 331 333 334 333 337 335 333 339 340 339
286 286 285 286 285 285 285 284 284 284 284 284 284 284 283 283 283 282 282 282 282 282 281 281 281 281 281 281 281 281 281 280 280 280 279 279 278 277 278 279 279 280 282 284 285 285 286 286 288 289 290 291 292 293 293 294 294 295 294 296 300 302 305 306 305 307 307 307 307 308 309 310 311 313 316 324 330 333 335 332 335 334 334 340 339
285 285 285 285 285 284 284 283 283 284 284 283 283 283 283 282 282 282 282 281 281 281 280 280 281 280 280 281 281 281 280 281 281 280 280 280 279 277 278 279 277 278 280 281 280 283 284 285 288 289 289 290 291 292 293 293 294 294 295 296 299 301 303 305 306 306 305 305 305 306 307 308 310 312 313 315 325 331 332 335 332 335 333 335 340
285 284 285 284 284 283 283 283 283 283 283 282 282 282 282 281 281 281 281 281 281 281 280 280 280 280 280 279 279 280 280 281 280 280 279 278 277 277 277 277 278 277 279 279 281 280 282 286 287 288 288 289 290 291 292 292 293 293 294 294 296 299 301 303 304 305 306 306 307 307 306 307 309 310 313 315 317 327 330 331 334 332 335 334 335
283 284 284 283 283 282 282 282 282 282 282 282 282 281 281 281 281 280 280 280 280 280 280 280 279 279 280 279 279 279 280 280 280 279 280 279 278 278 277 274 275 276 276 278 279 279 280 282 285 284 286 287 288 288 290 291 292 293 293 295 295 296 299 302 303 303 304 304 305 305 305 305 307 310 311 312 314 318 328 331 332 336 336 336 335
283 283 282 282 281 281 281 281 281 281 281 281 280 280 280 279 279 279 279 281 279 279 279 279 279 279 279 279 279 279 279 279 280 279 279 279 279 279 278 276 274 272 275 275 276 277 281 279 282 284 284 285 286 287 289 290 291 292 291 292 293 293 295 298 301 303 304 305 305 305 306 306 306 307 308 309 311 313 317 322 325 327 327 327 327
282 282 281 281 281 280 280 280 280 280 280 280 279 279 279 279 278 278 278 279 279 279 279 279 279 279 279 279 279 279 279 280 279 280 279 279 279 279 279 277 276 273 272 272 273 274 276 280 277 280 284 284 285 287 288 288 290 290 291 291 292 292 294 297 300 301 302 303 304 304 304 305 306 309 309 310 311 312 316 320 321 323 325 325 327
281 281 281 280 280 280 279 279 279 279 279 279 279 278 278 278 278 278 278 279 278 278 279 279 278 279 279 279 279 278 279 279 279 279 279 279 279 279 279 279 278 275 274 272 272 276 275 278 278 277 280 281 283 284 285 286 289 289 289 289 289 290 293 296 300 301 302 304 305 305 305 304 304 306 308 309 311 312 315 318 320 321 324 324 327
280 280 279 279 279 279 279 278 278 278 278 278 278 278 278 277 277 277 278 278 277 277 277 277 277 277 277 277 277 277 278 278 278 278 279 279 278 278 278 278 277 276 275 273 271 274 277 274 277 279 279 280 282 282 284 284 286 287 287 287 288 290 292 292 297 301 302 303 303 304 303 303 303 304 304 306 311 312 314 317 318 320 323 324 327
279 279 279 278 278 278 278 277 277 277 277 277 277 277 277 276 276 276 276 276 275 275 275 276 276 276 276 275 276 276 276 276 276 277 277 277 278 277 277 277 276 276 275 273 272 271 275 275 276 277 279 279 280 280 281 282 284 286 285 286 287 289 290 292 296 298 300 302 302 303 304 303 304 303 304 304 308 312 314 315 318 320 321 324 326
279 278 278 277 277 277 277 277 276 276 276 276 276 275 275 275 275 275 274 274 273 274 274 274 274 274 274 274 274 274 275 274 275 275 275 275 276 276 276 276 275 275 275 273 272 271 274 277 277 277 278 278 277 279 279 281 282 284 286 286 286 286 287 288 291 296 298 300 301 302 303 303 303 304 305 305 306 309 313 315 318 319 320 323 324
278 277 277 277 277 276 276 276 275 275 275 275 275 274 274 273 273 273 273 272 272 272 272 272 272 273 273 272 272 273 274 273 273 273 274 274 274 274 274 274 274 274 275 273 272 272 271 274 275 277 277 278 275 278 278 280 280 282 282 285 287 287 287 288 290 295 297 299 300 302 303 303 303 304 305 306 308 309 312 315 316 316 317 320 320
277 277 276 276 276 275 275 274 274 274 274 273 273 273 273 272 272 272 272 272 271 271 271 271 271 272 271 271 271 272 272 272 272 272 272 272 273 273 273 274 273 274 274 274 272 271 271 272 274 274 274 275 275 276 277 278 280 282 283 284 286 287 288 289 291 294 297 298 300 302 302 303 303 304 304 305 307 308 310 312 314 315 316 318 318
276 276 276 275 274 274 273 273 273 273 272 272 272 272 272 271 271 271 271 271 271 270 270 270 270 270 270 270 271 271 272 270 270 271 271 271 271 272 272 272 272 272 273 273 273 272 271 270 272 273 274 274 274 276 277 279 279 279 281 285 288 289 290 291 292 293 296 299 300 300 301 302 302 303 304 305 306 308 309 311 312 314 315 315 316
275 274 274 274 273 272 272 272 272 272 272 271 271 271 271 271 271 270 270 270 270 270 270 270 271 270 270 270 271 271 271 271 270 270 271 270 271 271 271 271 271 272 272 272 272 272 271 270 271 273 274 274 275 275 277 277 278 279 281 281 282 285 289 291 293 295 295 297 298 299 300 301 301 302 303 304 305 307 309 311 312 313 313 314 313
273 273 272 272 272 271 272 271 271 271 271 271 271 271 271 271 271 270 270 270 270 270 270 271 270 270 270 271 271 272 271 270 269 270 270 270 271 271 271 271 271 272 272 272 272 272 271 271 271 271 272 272 273 274 276 278 278 278 279 281 284 285 286 288 293 295 296 296 296 298 298 298 299 301 302 303 304 305 308 310 311 312 311 311 311
272 271 272 271 271 271 271 271 271 271 270 270 270 270 270 270 270 270 270 270 270 271 271 271 271 272 272 271 271 271 270 270 270 270 270 271 271 271 271 271 271 271 271 271 271 271 271 271 271 271 271 273 273 273 275 277 277 278 278 279 279 282 283 285 289 293 295 296 297 298 298 299 299 301 302 302 303 304 306 309 310 311 310 310 310
270 270 270 270 270 270 270 270 270 270 270 270 270 270 270 271 271 270 270 271 271 271 272 272 272 272 272 272 272 272 272 271 271 271 271 271 271 271 272 272 272 271 271 271 271 271 271 271 271 271 272 272 273 274 276 277 277 278 279 279 278 280 283 287 291 291 294 294 295 296 298 299 299 300 301 302 303 305 305 306 307 308 308 309 309
270 270 269 269 269 269 269 269 270 270 270 270 270 270 270 270 271 271 271 272 272 272 272 272 272 272 272 272 273 273 273 275 276 276 275 275 272 270 271 272 271 271 271 271 271 271 271 271 271 272 271 271 272 273 274 274 276 278 282 283 282 284 286 289 291 293 294 293 294 295 295 296 296 297 300 303 305 304 304 303 308 305 306 307 309
268 268 268 268 268 268 268 269 270 270 270 270 271 273 273 272 272 272 273 273 273 272 272 272 272 273 273 274 274 276 277 277 277 278 278 279 279 276 274 273 273 272 271 271 271 271 271 270 270 271 271 271 272 274 274 276 278 280 281 282 282 286 288 289 290 291 294 294 292 292 294 296 296 297 299 301 306 305 308 308 311 311 307 308 309
267 267 267 267 267 268 269 269 269 269 270 270 272 273 274 276 274 273 273 273 273 273 273 273 272 273 274 274 275 275 276 276 276 277 278 279 279 279 279 279 278 275 273 272 272 272 271 271 272 272 272 272 274 275 275 276 277 278 279 281 283 286 286 285 285 289 293 293 292 292 292 296 298 298 299 300 304 308 310 311 308 307 307 308 309
266 266 266 267 268 269 269 269 269 269 269 271 273 274 275 276 276 274 274 273 273 273 273 273 273 273 273 273 274 274 274 274 274 274 276 278 278 279 279 279 279 280 280 276 274 273 273 273 273 273 274 274 275 275 276 276 277 278 281 282 283 284 286 286 286 285 291 291 289 288 287 291 294 295 296 299 304 308 311 310 308 307 308 309 308
266 266 266 267 268 268 268 268 268 269 269 271 273 274 275 276 276 276 274 274 273 273 273 273 273 273 273 273 273 273 273 276 275 274 274 274 276 278 278 278 279 280 280 281 281 278 276 275 274 274 275 275 275 276 277 277 278 278 279 279 282 284 285 285 286 286 287 289 288 286 285 288 292 293 295 298 302 307 310 308 308 308 308 308 308
265 266 266 267 267 267 268 268 267 268 268 270 272 274 275 276 277 276 274 274 274 273 273 273 273 273 273 273 272 272 273 273 274 274 273 273 273 274 274 274 275 276 278 279 279 280 279 277 276 274 276 277 276 277 279 280 278 277 278 279 281 282 284 285 287 287 288 289 286 285 285 287 291 292 292 296 301 306 310 310 308 308 308 308 308
265 266 266 266 267 267 266 266 266 266 267 271 273 274 275 276 277 277 274 273 273 273 273 273 273 273 273 273 273 273 273 273 274 274 273 273 273 273 273 273 274 275 275 275 275 276 276 276 276 276 277 277 277 278 278 279 278 278 279 279 280 283 285 286 286 286 286 288 287 286 283 288 290 291 293 296 300 305 311 310 308 307 308 308 308
266 267 267 267 266 265 266 266 266 266 267 271 272 273 275 276 277 274 273 272 272 272 272 273 273 273 273 273 273 273 273 273 276 278 277 275 274 273 273 273 274 275 275 278 280 280 278 278 278 278 278 278 280 279 279 279 279 279 280 281 283 283 282 282 282 284 285 288 288 288 286 287 290 291 292 296 300 304 311 313 308 307 308 308 307
265 266 266 266 266 266 265 265 265 265 266 269 272 273 275 276 275 272 272 272 272 272 272 273 273 273 274 274 274 274 274 274 276 279 279 278 274 274 273 273 274 274 275 277 279 281 281 282 282 283 282 283 283 284 284 284 283 282 281 280 281 283 282 281 282 283 284 287 287 289 287 286 288 290 290 294 297 303 310 312 312 307 307 307 307
265 265 265 265 266 266 265 265 265 265 265 268 272 273 274 275 275 272 272 271 271 272 272 273 273 274 274 276 276 274 274 273 277 278 279 277 274 274 274 273 273 273 274 277 277 278 281 282 282 283 283 283 284 284 285 285 285 284 281 279 282 283 282 282 281 283 285 286 287 288 285 285 288 290 290 292 294 301 309 311 311 309 305 306 307
265 265 265 265 265 265 265 265 267 267 267 268 272 273 274 275 274 272 272 271 270 271 271 272 273 274 274 275 276 275 274 275 278 278 279 277 274 274 273 273 272 272 274 276 276 276 277 278 279 280 280 282 281 281 281 284 284 284 283 282 283 282 282 283 283 283 282 283 287 288 285 286 286 288 289 289 292 301 306 309 308 309 309 308 309
Wind_Speed
3 4 3 4 4 4 4 4 5 5 6 5 6 7 6 7 6 7 7 7 7 7 7 8 7 8 8 8 8 8 8 8 8 8 8 8 8 9 12 13 16 18 18 19 20 20 20 21 22 23 24 23 23 24 24 24 23 22 22 22 22 22 20 19 19 19 18 18 21 21 22 24 25 23 24 25 25 23 24 26 25 23 21 20 20
4 3 4 4 4 4 4 4 4 5 5 5 6 6 6 6 6 6 7 7 7 7 7 7 7 8 8 8 8 8 8 8 8 8 8 8 9 9 13 12 12 18 20 20 20 20 20 20 21 22 22 24 24 24 24 24 23 24 24 22 23 22 20 19 19 19 19 18 20 23 24 24 22 22 20 20 24 26 24 25 24 26 24 23 21
3 3 3 3 3 4 4 4 4 4 5 5 5 6 6 6 6 6 6 6 6 6 7 7 7 7 7 8 8 8 8 8 8 9 9 9 9 9 10 14 14 16 17 19 20 20 20 21 21 21 22 23 24 25 24 24 24 24 25 25 23 23 22 20 19 20 20 19 20 20 21 26 22 22 24 25 23 26 31 31 29 26 24 20 21
3 2 3 3 4 5 4 4 4 4 5 5 6 6 6 6 6 6 7 6 7 6 6 7 7 7 8 9 8 8 9 8 9 9 9 9 10 10 10 10 13 14 15 18 20 21 21 20 21 21 22 23 23 24 24 24 24 25 24 26 25 24 23 21 19 20 21 20 19 20 21 23 20 24 23 24 24 26 30 28 25 25 23 22 22
3 4 4 4 4 4 4 4 4 4 5 6 7 6 6 5 6 6 6 6 7 7 6 7 7 8 8 9 8 9 9 9 9 9 10 9 10 10 10 10 11 13 15 15 18 19 19 20 20 20 21 22 23 23 24 24 23 24 24 25 25 26 24 24 21 19 20 21 20 20 21 23 22 23 22 26 28 28 30 27 26 24 24 23 23
3 4 4 3 3 3 3 4 3 5 5 5 5 5 6 6 6 6 6 7 7 7 7 7 7 7 8 8 8 9 8 9 10 10 9 9 10 10 10 10 10 9 8 12 13 15 19 19 19 19 20 20 21 22 23 24 24 24 24 25 25 25 26 26 25 23 20 22 19 21 22 23 23 28 25 26 26 27 27 29 28 25 25 24 23
3 2 2 2 3 3 3 3 4 6 5 5 5 6 5 6 6 7 7 7 7 7 8 8 8 8 8 8 9 9 9 10 10 10 10 10 10 10 10 10 10 9 8 8 9 11 12 15 17 18 19 21 22 23 24 24 24 23 24 24 25 27 25 25 25 24 22 20 22 22 23 22 24 25 25 26 26 26 27 33 31 26 28 29 26
1 1 1 1 2 3 3 4 5 5 5 5 5 5 6 6 6 6 7 8 8 8 7 8 8 9 9 9 9 10 10 9 10 10 10 10 10 10 10 10 9 9 9 9 9 9 13 15 17 18 19 19 21 22 23 24 25 26 25 25 26 26 27 26 25 27 25 21 20 22 22 23 24 23 24 25 26 25 25 24 26 22 20 20 22
2 1 1 1 2 3 3 4 4 5 5 5 5 5 6 6 6 6 6 8 8 9 8 8 9 9 9 10 10 10 10 10 10 10 9 10 11 11 10 9 9 10 9 9 8 8 10 12 13 16 16 18 21 22 23 24 25 25 25 26 26 26 26 26 26 26 23 21 21 21 21 22 24 26 28 26 26 26 26 26 25 24 24 26 27
2 1 1 1 2 3 4 4 4 5 5 5 6 6 6 6 7 7 7 8 8 9 10 9 9 9 10 11 11 10 10 11 11 10 10 11 10 10 10 9 8 8 9 8 9 9 9 11 14 15 16 16 19 20 21 22 23 24 25 26 26 26 26 26 27 25 24 24 22 21 23 24 24 26 30 27 26 27 28 27 28 29 28 33 30
2 1 1 2 2 3 3 4 4 4 5 5 6 6 6 6 8 8 7 7 8 9 9 9 10 10 11 13 12 12 10 11 10 10 10 11 10 10 8 10 9 9 9 9 8 8 9 9 9 8 9 12 14 18 20 21 22 22 24 25 26 26 26 27 27 28 25 23 25 23 23 24 23 21 23 26 27 28 30 30 26 24 25 27 26
1 0 1 2 2 3 4 4 4 4 5 5 6 5 7 8 8 8 9 8 7 7 8 9 10 12 13 11 11 13 14 12 13 12 11 10 9 9 9 8 8 8 7 7 8 8 9 9 8 9 9 11 14 15 19 21 20 22 23 24 25 27 27 26 27 28 27 24 23 25 25 24 25 25 29 28 27 28 27 27 24 24 26 28 28
1 1 1 2 3 4 4 4 3 4 4 5 6 7 7 7 7 7 8 9 7 7 7 8 11 11 8 11 12 13 13 13 14 13 10 8 7 8 7 7 8 7 7 7 9 10 9 9 9 9 9 8 9 13 14 16 18 18 22 24 24 25 27 28 28 28 27 28 25 25 27 27 26 22 27 30 30 26 27 29 31 32 33 33 32
2 2 2 3 4 4 4 4 3 4 5 6 7 8 8 7 6 7 6 7 7 7 7 7 7 9 14 15 9 6 8 11 13 9 7 6 5 6 8 10 10 10 10 10 10 10 10 10 10 10 10 9 9 9 9 11 12 15 17 18 21 23 24 28 29 28 28 29 29 28 27 26 28 28 27 27 32 28 25 30 34 38 40 38 38
3 3 3 4 4 4 4 3 4 4 5 6 7 8 7 7 7 7 7 6 7 6 5 4 7 9 10 11 12 16 5 5 2 3 7 9 13 14 13 11 12 10 10 9 9 9 9 9 10 10 10 9 9 10 11 12 14 15 17 19 21 23 24 27 29 29 30 31 30 29 28 25 26 29 30 29 29 31 33 31 28 28 30 32 34
4 4 4 5 5 4 4 4 4 4 5 6 7 8 7 6 6 7 7 8 6 6 5 5 4 7 8 6 12 9 14 3 10 12 9 15 14 10 6 7 10 10 9 10 9 10 10 11 12 11 10 10 10 11 12 12 16 17 21 23 25 27 30 27 27 31 31 31 31 30 30 26 27 27 28 29 29 33 31 31 31 32 30 32 32
4 5 5 5 5 4 4 4 4 5 5 6 7 7 6 6 7 7 6 7 8 6 6 5 5 3 4 7 7 6 7 13 16 16 5 3 6 10 12 13 10 9 9 10 9 10 11 11 11 10 11 12 12 11 11 12 13 13 15 18 21 21 19 21 24 27 31 33 32 31 32 30 29 30 32 33 31 30 33 32 32 32 33 33 33
4 4 5 5 5 5 5 5 5 5 5 6 7 7 7 7 6 6 7 7 7 8 7 5 4 4 6 6 6 8 13 14 9 14 12 8 14 7 8 10 10 10 10 11 12 11 10 12 12 13 13 13 14 14 12 14 14 13 12 12 15 13 16 21 27 26 26 30 33 34 34 34 31 28 29 31 34 32 33 36 32 32 34 35 33
5 5 5 5 5 5 5 5 5 6 6 7 7 7 7 7 6 6 6 6 6 8 8 6 5 5 6 7 9 10 10 10 10 11 18 13 6 8 9 8 10 11 11 10 10 10 10 11 13 12 13 13 13 13 13 12 15 16 21 21 22 23 26 26 25 28 29 29 30 30 35 36 33 33 30 30 31 32 31 32 27 28 34 36 35
5 6 6 6 5 5 5 5 6 7 7 7 7 7 7 6 6 7 7 6 7 7 8 6 6 6 5 7 8 9 11 12 13 11 13 17 23 4 7 8 9 10 11 13 13 13 14 11 12 13 11 12 12 12 14 15 13 15 14 19 20 21 23 25 26 27 30 28 31 31 30 35 35 36 33 32 31 31 34 33 28 29 35 34 35
6 6 6 6 5 5 5 6 6 7 7 7 7 8 9 8 8 7 7 7 6 7 7 7 6 7 7 7 8 9 9 10 11 11 10 13 20 19 15 7 10 14 12 12 12 11 12 13 13 14 14 13 13 13 15 15 15 14 15 19 19 19 19 21 22 23 23 24 27 30 30 32 35 35 38 34 34 32 31 34 33 32 37 37 37
6 7 6 6 6 5 6 6 7 8 7 7 8 9 9 8 8 7 7 8 7 7 8 7 7 7 7 8 8 8 9 9 9 10 12 12 15 20 20 19 18 11 7 10 12 12 12 13 15 15 14 13 12 13 13 14 13 12 14 19 20 21 21 22 25 25 25 27 27 28 31 31 33 36 39 36 34 34 33 29 35 34 36 38 37
5 5 6 5 5 5 5 6 7 7 7 7 8 8 7 6 6 7 8 8 7 8 8 9 8 8 9 9 9 9 9 10 10 9 11 11 13 17 19 19 19 23 9 6 11 13 13 12 12 12 12 13 13 13 14 15 19 17 21 23 24 24 25 26 29 26 24 24 25 25 26 27 28 32 37 41 38 35 33 31 31 36 39 37 38
5 4 4 4 4 4 5 6 7 7 7 6 7 7 6 6 6 6 7 7 8 8 8 9 10 9 10 9 10 10 10 11 10 10 11 12 12 16 16 16 19 18 12 10 11 14 14 15 13 12 12 12 13 14 14 15 16 24 22 24 26 26 26 29 29 24 22 24 25 26 29 29 28 27 32 37 41 40 33 36 34 36 39 37 41
4 4 4 4 4 4 5 6 6 6 6 6 7 7 7 7 7 8 8 9 8 8 8 9 9 9 9 9 10 10 11 10 11 11 11 12 13 15 16 14 17 20 17 11 12 10 11 13 11 11 13 14 14 13 14 14 13 17 19 17 24 24 24 23 23 26 26 27 28 30 32 32 31 28 30 35 39 41 40 31 34 36 42 42 44
4 4 2 3 4 5 6 6 7 7 7 8 8 7 7 7 7 8 9 8 8 9 10 11 11 12 11 11 11 11 11 11 12 12 12 12 13 14 15 14 15 19 17 16 15 14 11 9 10 12 12 13 13 13 13 14 15 19 22 19 20 25 27 27 29 27 26 26 26 27 28 29 30 31 28 32 37 41 43 40 33 35 37 41 36
4 3 3 3 4 5 6 7 7 7 7 7 6 7 7 7 7 8 8 8 8 9 9 11 11 12 12 12 11 11 12 11 11 12 12 13 13 13 13 17 17 16 18 15 17 18 17 10 11 13 13 14 14 15 16 15 17 21 19 15 14 23 26 27 31 31 29 28 28 29 31 31 29 30 29 29 33 36 42 39 38 32 32 35 39
3 3 3 4 5 6 6 7 7 7 7 8 7 7 7 7 8 8 9 7 8 10 10 11 12 14 14 13 13 13 12 12 12 12 12 13 13 15 15 16 18 20 16 19 16 18 14 14 10 12 13 13 14 14 16 18 16 20 21 16 17 20 29 31 30 28 29 29 25 25 27 28 29 30 31 30 31 32 34 34 33 29 29 31 34
3 3 4 4 5 6 7 7 7 7 8 8 8 7 7 8 8 8 9 9 9 10 10 11 11 12 11 13 13 12 12 12 12 12 13 13 13 15 16 17 16 17 19 18 21 17 16 12 14 10 10 12 13 12 13 14 16 18 15 16 17 18 24 30 31 32 31 31 29 29 30 31 29 29 30 29 30 32 34 35 33 30 28 32 36
4 4 4 5 6 7 7 7 7 7 8 7 7 8 8 8 8 9 9 9 10 9 10 10 11 11 12 12 12 12 12 12 13 13 13 14 15 15 17 17 16 21 18 20 21 16 20 16 15 13 12 13 13 14 14 15 19 21 17 18 17 18 26 28 28 31 30 26 22 20 21 22 23 24 26 29 30 32 34 35 34 32 29 29 30
5 5 5 6 6 6 6 7 7 8 8 8 7 7 8 8 8 8 8 8 9 11 10 10 10 11 13 14 13 13 13 13 14 13 14 14 17 15 17 17 18 20 20 19 20 18 17 22 18 12 16 17 16 16 15 15 18 21 19 18 21 27 30 28 29 25 23 23 22 19 20 22 25 27 29 28 28 31 33 35 34 33 30 30 34
5 6 6 6 7 7 6 7 7 8 8 7 7 7 7 8 8 8 8 9 10 11 11 10 9 11 13 14 14 13 13 13 13 13 14 14 14 16 17 16 18 18 18 20 23 27 17 21 23 17 20 19 18 21 22 19 19 26 20 19 20 25 22 19 24 26 24 23 22 20 21 24 24 27 29 30 29 30 32 34 35 34 33 31 33
6 6 7 7 7 7 7 8 8 8 8 8 7 7 7 8 8 8 9 9 11 10 11 12 11 12 13 14 15 14 13 14 13 13 13 14 15 15 16 16 16 16 18 15 21 21 22 18 17 16 18 19 18 20 22 21 20 17 18 19 20 20 20 19 20 25 26 26 26 26 25 27 27 27 27 29 29 30 32 34 36 35 33 33 33
6 7 7 6 6 7 7 8 8 8 8 8 7 7 8 8 8 7 7 9 11 11 11 12 12 11 12 14 14 14 13 14 14 14 14 15 15 16 17 17 18 15 17 15 20 18 26 20 17 15 15 16 19 21 21 22 22 20 22 19 17 18 18 18 18 17 22 24 26 25 25 26 27 26 27 27 28 29 31 33 36 36 33 32 32
6 7 7 7 7 7 7 8 8 8 8 8 7 7 8 8 9 9 9 10 11 12 12 12 12 12 13 13 14 13 11 13 14 14 15 16 15 17 18 16 18 16 18 15 18 18 24 24 18 19 16 18 17 20 20 20 22 21 21 20 19 17 16 18 17 15 20 24 28 26 24 25 26 27 27 28 28 28 29 31 35 35 33 31 32
6 6 6 7 6 7 8 9 9 8 7 7 7 7 8 8 9 10 10 10 11 12 12 12 12 12 13 14 13 13 12 14 15 15 15 15 16 16 17 17 19 20 19 16 19 16 21 21 21 17 16 19 18 19 20 20 20 22 21 18 16 17 18 17 18 16 17 23 27 29 27 26 27 28 27 27 27 27 28 30 33 35 33 31 31
6 6 6 6 6 7 8 8 8 8 7 7 7 8 8 8 9 10 10 11 11 12 12 12 13 13 14 14 15 14 14 17 17 16 16 18 16 16 17 17 17 17 15 16 17 18 20 22 22 16 17 18 18 20 20 20 18 20 20 21 20 20 19 18 19 16 21 27 28 29 26 26 28 29 28 27 26 26 27 29 32 34 33 31 30
6 6 6 5 6 7 8 8 8 7 7 7 7 8 8 9 9 10 10 11 11 11 12 12 12 12 13 15 16 18 19 18 17 17 18 19 18 18 19 18 17 17 18 17 18 18 20 20 20 20 17 18 18 18 18 18 18 20 19 18 17 17 17 19 18 14 12 13 14 15 19 23 27 32 30 27 27 26 26 28 30 33 33 31 29
6 6 6 6 6 7 8 7 7 7 7 7 7 8 9 9 10 10 10 11 11 10 11 13 14 16 18 18 19 19 18 19 20 19 18 21 18 21 20 20 18 18 18 17 18 18 19 19 19 18 18 16 17 21 18 17 19 20 20 19 18 17 17 18 18 14 13 15 17 21 19 17 18 17 19 26 27 26 25 27 30 33 33 31 29
6 6 6 6 6 7 7 7 7 6 6 7 8 8 9 9 9 9 9 11 12 14 15 15 15 16 17 18 19 20 21 20 21 20 21 18 19 19 19 17 18 18 17 16 17 17 16 18 18 15 17 16 16 18 19 18 17 18 15 14 16 17 17 17 17 16 13 12 11 11 13 16 18 23 24 22 23 23 24 25 30 33 33 30 30
5 5 5 6 7 8 8 7 7 6 6 7 6 6 7 8 8 10 12 12 13 14 15 15 17 17 18 19 19 20 21 27 29 27 25 25 19 17 18 16 17 17 17 16 16 14 17 15 17 17 15 17 17 18 18 16 17 16 13 11 14 17 17 15 12 10 9 9 9 10 12 12 13 14 12 11 14 20 22 26 25 33 33 30 31
5 5 5 6 7 8 8 7 6 6 6 6 8 13 12 9 10 11 11 13 14 14 14 16 15 16 18 16 18 26 29 30 31 32 33 34 33 26 21 15 16 15 16 16 16 14 13 15 17 13 17 17 16 18 19 18 15 16 18 18 18 19 15 13 9 8 7 7 9 12 14 11 12 14 12 12 11 14 12 15 17 21 29 31 30
5 4 5 7 8 8 8 6 5 6 6 6 11 13 14 17 13 12 12 13 13 14 15 14 17 17 15 17 15 20 22 24 24 29 32 32 31 33 34 34 29 22 17 14 14 14 15 16 15 16 15 19 19 18 20 19 18 17 16 17 17 16 9 7 7 5 5 7 8 8 8 7 8 11 11 11 12 11 12 14 21 27 29 30 31
5 5 6 8 8 7 6 5 6 6 7 10 14 14 16 16 16 13 12 12 13 13 13 15 14 16 18 16 17 14 15 18 18 20 24 30 33 33 34 33 32 34 33 26 21 16 16 14 14 14 16 15 19 16 18 16 18 17 17 15 16 17 12 8 6 7 1 6 9 11 13 10 9 12 12 11 10 10 13 17 25 27 30 32 31
5 6 7 7 8 7 6 5 6 6 8 11 13 15 16 17 18 17 12 12 13 13 15 15 15 17 15 18 16 17 16 25 22 20 18 19 26 33 33 34 33 33 32 35 34 27 20 19 19 18 17 17 19 18 18 16 18 18 18 17 16 15 14 10 9 8 5 3 7 11 15 15 9 11 12 11 9 10 13 21 27 28 29 31 31
5 6 7 8 7 6 5 5 5 6 8 10 14 15 16 18 18 17 12 14 13 14 15 15 16 17 18 17 19 18 16 19 19 18 19 19 18 18 18 17 18 23 29 32 34 35 30 23 21 19 16 16 19 16 20 18 19 18 16 17 17 17 16 12 9 9 10 7 11 12 14 15 8 9 11 11 10 12 14 20 28 30 30 31 31
6 6 7 7 7 5 5 4 4 6 7 13 14 16 17 18 19 18 12 12 12 13 14 16 17 16 19 19 18 19 23 21 14 21 20 20 18 18 18 18 18 19 20 21 21 18 19 18 23 22 20 19 21 23 21 20 19 19 18 21 21 19 17 13 12 12 13 11 12 10 12 12 3 8 10 10 11 14 15 21 29 31 32 31 32
5 5 6 6 6 5 5 5 5 6 7 13 14 15 17 17 20 13 11 12 13 14 16 15 15 18 18 17 18 22 21 18 25 32 29 23 21 21 21 20 19 19 18 20 27 28 26 23 19 22 17 21 23 21 19 19 17 18 19 19 17 17 17 15 17 11 10 6 10 10 10 11 5 8 11 10 11 16 17 16 25 31 32 31 32
5 6 6 5 5 5 5 5 5 5 6 10 13 15 16 18 16 11 12 12 12 14 15 15 17 18 15 17 20 17 19 22 28 34 34 31 22 21 21 22 20 19 17 18 26 34 36 37 38 39 37 36 34 33 33 38 28 21 16 17 18 14 14 15 14 11 11 6 6 7 8 12 6 5 10 10 12 16 16 16 16 28 31 32 32
6 6 5 5 4 5 5 5 4 5 6 10 14 15 16 17 16 12 12 12 14 13 14 18 16 14 18 29 24 20 23 23 31 33 33 27 20 19 20 21 21 19 17 14 15 18 30 35 37 36 37 35 36 37 37 37 36 29 20 21 16 12 15 14 14 12 9 7 8 6 7 10 6 3 6 10 12 14 15 15 16 21 30 29 33
5 5 5 4 4 4 5 5 7 6 6 8 12 13 15 16 15 11 11 11 13 14 17 16 14 16 17 18 25 26 25 27 34 32 33 28 20 18 19 19 21 21 16 17 17 17 15 15 16 18 20 27 25 21 22 33 35 30 23 21 17 16 16 15 13 10 10 8 6 4 6 6 7 7 4 9 12 10 12 14 16 17 19 19 23
Wind_Direction
35 21 9 15 0 1 351 0 348 354 350 345 351 343 338 339 336 337 331 329 326 328 331 325 325 326 319 316 314 310 307 304 303 299 294 291 290 290 294 292 289 291 290 290 289 288 286 285 284 284 284 283 284 286 286 280 274 273 270 267 266 263 255 251 247 244 230 222 225 222 226 225 229 233 230 218 208 206 201 201 201 199 192 198 195
34 12 10 4 358 358 354 357 345 353 350 343 348 340 333 328 332 326 325 322 320 318 319 316 319 315 316 314 313 311 305 304 301 299 297 293 290 287 281 282 283 287 287 287 287 285 286 283 283 282 283 283 282 282 281 285 278 272 271 267 264 263 260 253 250 245 239 227 221 225 227 229 228 227 221 217 214 208 202 199 197 198 194 192 194
35 20 359 1 360 1 352 352 344 352 347 337 339 329 320 316 321 317 315 312 309 314 311 311 309 308 308 309 308 304 305 302 299 297 296 293 291 290 287 280 273 270 276 281 283 283 282 283 282 282 282 282 282 282 281 281 284 282 275 271 266 263 262 257 247 245 239 232 230 224 225 230 233 234 230 226 221 209 205 200 196 192 191 191 192
61 32 6 0 4 358 343 346 339 345 340 334 326 315 306 303 303 305 298 296 304 304 309 309 306 307 308 304 304 300 298 298 295 293 292 291 288 286 288 285 277 269 265 272 278 281 281 281 281 281 280 281 281 281 281 278 278 281 280 273 270 266 262 259 254 247 245 233 226 223 223 223 220 229 228 227 230 232 219 198 181 185 183 189 194
41 33 9 2 1 341 338 333 335 347 330 320 315 311 306 309 311 306 302 309 303 307 311 305 304 305 306 302 303 299 297 296 293 291 289 291 289 288 285 283 284 280 268 260 263 271 278 280 280 281 282 281 281 281 281 281 278 277 278 280 277 271 264 260 256 247 244 243 227 218 223 224 221 224 224 223 226 233 224 207 194 182 184 188 188
32 27 10 357 338 323 328 325 341 342 321 318 322 316 307 309 315 315 318 312 314 314 313 310 305 303 302 302 296 294 295 293 292 290 286 282 284 282 282 283 284 284 286 279 269 264 272 277 279 280 281 282 282 281 281 280 279 277 276 276 277 272 271 262 257 255 241 236 224 218 223 222 221 224 224 226 223 224 213 204 198 189 186 184 188
47 23 0 331 314 312 320 327 348 328 321 319 310 302 302 317 322 323 318 316 315 313 310 306 303 300 300 300 299 299 294 290 287 286 283 281 279 278 279 280 280 283 286 291 288 282 275 280 284 284 284 285 285 285 284 283 281 280 278 273 272 276 270 270 266 259 251 237 236 229 225 219 222 220 220 223 223 219 216 203 193 188 186 184 186
83 54 290 305 300 311 318 338 335 322 315 304 304 309 323 322 322 321 318 313 312 308 307 303 301 300 299 294 292 290 289 286 283 278 277 278 277 277 277 277 279 282 290 291 287 283 276 272 273 278 280 280 282 282 282 280 280 279 276 277 276 271 273 270 269 263 256 246 235 235 233 225 223 224 224 221 219 219 217 212 204 193 188 184 188
141 171 256 286 315 316 319 326 324 312 302 310 312 321 323 320 315 318 311 308 308 307 311 310 306 302 301 294 290 288 283 277 274 275 279 275 274 273 273 272 276 275 277 277 279 282 283 282 277 277 277 275 277 278 278 279 278 277 276 272 270 272 273 273 267 268 266 253 243 235 230 225 226 226 226 223 217 214 213 209 203 195 191 190 188
167 194 282 312 308 308 307 308 301 304 308 314 315 312 308 310 312 312 312 308 308 314 312 311 309 304 298 294 287 281 275 272 270 272 270 270 269 268 271 278 279 275 273 275 282 284 287 283 279 275 267 262 261 272 277 277 277 276 275 273 272 268 267 268 270 263 262 260 248 237 233 230 226 225 227 222 217 211 209 205 204 199 190 189 187
177 209 301 332 320 307 292 289 297 299 310 312 310 306 302 310 306 301 300 302 302 304 304 307 307 301 295 290 285 276 273 268 269 265 260 261 268 274 273 270 266 268 270 272 273 280 281 284 286 287 283 275 277 279 280 281 281 279 279 276 273 271 268 264 264 266 262 259 257 245 232 231 225 219 222 224 222 216 212 206 204 201 196 196 192
182 340 313 294 296 286 282 282 285 294 302 302 298 301 309 304 298 303 303 301 297 297 305 308 301 294 286 283 283 283 274 270 266 262 261 264 270 271 274 271 270 272 277 282 284 281 281 280 280 281 282 276 270 270 275 278 275 275 274 274 274 273 270 266 263 262 262 255 254 254 243 230 228 223 226 227 223 218 215 205 195 192 191 191 193
205 239 259 266 262 264 267 273 272 287 284 281 289 295 295 291 294 295 299 302 302 306 307 311 303 300 299 288 286 272 261 261 257 252 256 268 269 275 279 283 283 282 291 293 285 282 282 283 281 281 279 277 275 270 264 265 266 264 269 273 273 269 270 268 264 263 261 259 251 249 248 244 233 216 219 225 223 217 211 205 197 195 192 189 190
208 227 246 247 256 265 268 273 279 276 280 283 283 282 281 280 288 296 294 302 300 307 304 316 313 331 326 320 295 277 283 270 263 265 255 249 272 292 293 287 285 289 287 285 282 280 280 283 284 283 282 286 289 291 289 283 271 260 272 283 287 284 273 266 268 263 261 260 258 253 249 240 240 234 219 220 222 217 217 218 214 205 196 192 191
206 214 231 237 249 257 264 273 276 280 283 283 283 283 280 286 289 291 303 298 291 292 301 322 309 317 297 290 322 329 331 257 195 24 344 312 291 280 277 274 275 277 280 280 283 281 279 281 283 278 276 277 285 286 283 277 280 295 298 294 292 289 289 283 271 268 262 256 257 256 250 241 237 235 230 221 221 219 219 219 215 204 200 195 191
205 215 222 229 238 255 267 269 272 272 272 279 279 279 279 279 281 285 289 294 300 302 305 302 299 325 333 345 303 304 311 340 338 290 277 269 262 263 269 282 282 275 277 278 279 284 286 286 282 280 281 285 283 282 281 284 280 277 275 270 265 269 273 277 277 269 267 263 258 257 252 245 240 240 236 224 217 220 220 216 213 207 198 194 189
213 221 228 237 242 246 255 264 271 271 269 270 270 269 276 278 275 272 274 287 296 297 298 286 276 253 271 320 325 306 290 310 338 302 193 295 287 289 278 272 273 283 280 275 278 280 280 278 278 278 278 280 280 279 280 280 282 276 271 266 255 251 263 274 278 277 271 266 262 258 258 250 245 240 240 238 226 217 220 218 215 206 200 196 192
216 222 225 234 237 239 245 255 261 264 260 262 268 275 271 263 262 267 275 274 280 295 292 286 270 255 240 231 229 271 308 312 329 305 305 251 267 256 285 282 281 285 279 280 282 282 281 282 282 283 282 280 279 279 280 278 277 277 275 275 273 269 266 270 270 269 274 273 268 261 257 258 248 242 238 237 234 228 221 221 217 214 198 193 194
213 216 225 226 234 241 244 251 258 261 263 263 262 266 266 263 263 259 268 278 278 282 291 299 295 260 243 238 244 256 267 289 296 309 306 310 213 273 285 281 283 277 277 280 282 280 278 280 280 278 278 277 276 277 276 275 273 273 273 271 271 271 271 268 269 272 269 272 277 279 268 256 255 247 241 239 238 234 228 222 215 214 218 201 195
212 216 222 224 230 240 243 248 254 256 257 257 261 263 265 266 259 259 262 260 264 270 287 290 290 294 284 278 271 265 258 259 260 266 289 302 305 272 248 278 281 275 282 281 276 275 277 272 277 277 277 278 281 280 281 282 280 277 273 269 264 259 256 253 254 260 265 265 269 272 277 267 256 255 244 241 238 234 232 228 213 204 201 198 196
216 218 216 222 226 238 244 249 251 255 253 257 258 259 263 267 267 265 262 267 267 274 279 283 286 288 297 282 278 272 271 265 261 259 258 291 289 296 296 277 267 275 273 267 269 266 271 281 282 280 278 275 275 276 275 275 276 272 269 269 267 269 270 273 268 262 260 261 261 266 269 277 267 259 257 246 242 236 230 229 220 204 202 199 194
208 210 213 215 223 233 239 245 252 253 254 259 263 265 263 260 261 263 266 269 271 271 271 278 281 281 277 282 277 276 273 268 260 257 262 247 268 293 299 305 299 276 259 276 276 271 273 272 273 272 272 273 276 275 276 275 270 270 270 267 265 264 264 263 265 267 267 267 265 264 265 265 272 272 266 257 246 242 234 228 226 213 202 199 197
204 206 206 212 219 230 242 252 255 258 261 262 260 261 265 271 274 271 268 265 269 271 273 273 273 273 269 264 262 263 263 267 270 268 269 271 278 276 285 291 294 295 283 257 271 274 270 268 267 267 273 273 271 268 269 270 276 276 278 277 272 265 262 261 263 261 258 259 262 264 263 263 263 269 270 267 259 248 237 231 223 222 208 197 197
210 213 213 212 221 236 246 253 253 255 258 258 263 270 275 277 276 273 273 272 268 268 265 265 262 263 262 258 259 260 259 259 263 266 262 265 266 274 281 294 292 277 289 292 271 270 272 268 264 268 269 271 270 269 267 267 266 267 267 268 268 269 263 260 257 252 255 262 266 268 267 265 259 259 266 268 264 257 248 238 226 220 218 200 198
210 213 211 207 220 240 248 249 252 258 264 268 272 272 274 270 270 271 270 269 267 265 264 262 261 261 265 262 264 259 259 259 262 260 262 265 262 270 271 275 277 291 295 297 285 276 264 265 271 268 270 271 269 266 267 264 262 262 265 263 263 263 262 258 255 256 257 259 260 260 261 263 263 257 255 260 262 258 253 244 235 223 223 215 200
217 218 215 219 229 245 257 260 263 266 267 267 266 271 270 270 270 269 268 267 268 267 264 263 261 259 258 262 258 259 260 259 259 259 259 260 260 260 274 274 273 280 288 293 288 289 272 251 259 263 264 267 271 273 268 267 265 264 264 266 270 271 267 261 256 250 248 248 252 256 257 257 259 259 254 256 259 258 253 249 243 233 222 223 221
222 219 216 227 245 257 259 265 268 268 270 269 271 269 270 274 273 272 272 269 268 267 265 264 264 262 260 258 261 259 259 260 257 258 259 257 261 266 272 280 281 275 282 283 290 276 278 281 275 271 269 274 277 276 273 272 272 273 274 268 267 262 260 257 257 257 255 255 254 254 254 255 254 257 255 253 256 257 254 248 247 235 229 222 217
228 233 236 242 250 256 261 262 265 264 265 268 270 269 272 273 271 269 270 269 270 266 266 266 265 264 264 262 261 259 258 258 257 259 258 259 264 269 268 267 273 280 279 283 283 277 287 290 282 270 271 271 272 270 272 271 270 270 271 271 272 272 270 267 260 251 249 251 251 255 257 254 252 252 253 252 252 253 252 248 243 238 229 223 213
226 227 239 244 249 252 258 261 264 264 264 265 266 268 272 272 270 272 273 273 272 271 270 269 268 271 269 266 264 265 262 260 259 256 257 260 260 264 261 262 264 268 276 277 277 287 287 283 288 281 291 298 292 294 290 284 273 268 261 259 260 258 255 254 257 255 254 255 256 258 255 253 253 252 253 251 249 249 249 244 239 238 230 220 213
212 218 226 240 247 251 254 257 259 261 261 266 267 269 270 269 271 272 272 274 274 273 270 270 271 272 272 269 266 267 266 265 266 266 264 263 266 269 268 265 263 262 266 270 276 274 285 280 273 287 294 290 288 284 285 282 286 291 296 293 284 280 284 279 261 252 250 246 246 252 260 264 266 266 262 255 249 248 246 242 235 233 230 220 220
207 215 226 235 239 248 248 256 260 261 264 265 268 268 268 271 273 273 274 274 274 276 273 274 276 276 275 273 271 270 271 272 271 271 272 274 272 270 269 267 263 260 264 266 271 271 272 280 276 279 287 289 288 289 286 282 281 283 281 282 284 284 281 273 273 260 248 247 251 254 258 261 262 263 263 262 254 248 245 240 233 230 227 222 214
212 213 222 232 242 244 248 254 257 260 262 263 265 269 268 266 269 271 274 275 275 274 275 273 274 274 275 274 274 274 276 276 274 274 274 270 271 269 267 266 265 261 262 265 265 271 268 272 279 284 279 281 285 283 277 274 273 272 272 272 274 276 277 280 275 267 263 258 255 252 253 259 259 260 260 259 256 253 247 241 234 228 225 223 216
203 212 218 228 234 238 245 250 252 255 258 260 260 263 263 265 267 268 272 273 273 270 272 273 271 274 273 274 274 274 278 278 277 278 274 273 272 268 266 265 264 261 260 261 267 272 274 266 275 279 284 285 281 278 280 280 279 276 270 267 264 262 266 268 265 266 266 264 260 257 253 254 257 257 256 256 256 252 248 242 235 229 223 223 223
204 213 218 226 232 238 244 250 252 254 256 255 257 256 259 264 266 266 268 271 269 270 271 270 270 269 272 273 274 276 274 273 275 275 275 273 271 268 265 265 263 263 260 266 266 271 274 278 275 280 282 287 285 280 279 280 276 269 271 269 262 258 262 263 261 260 260 267 264 254 251 253 256 256 256 255 254 252 248 241 234 229 222 219 218
202 207 215 221 227 235 245 249 249 249 251 252 253 257 260 262 267 267 266 267 268 270 268 269 270 273 273 272 272 274 275 277 278 277 275 273 272 269 268 265 264 264 264 261 266 269 272 275 278 281 282 277 273 282 275 270 276 280 282 274 265 263 258 260 260 257 253 255 260 258 253 255 257 258 256 254 253 251 247 240 233 227 222 217 215
200 205 208 219 227 235 242 246 246 246 248 254 255 256 261 264 265 268 268 265 265 266 268 269 270 272 271 273 270 271 276 277 276 276 272 271 268 267 267 264 265 266 264 264 260 265 270 276 276 276 280 279 280 277 278 275 266 263 261 268 280 281 279 271 260 256 254 253 254 257 257 257 259 258 256 252 252 251 246 239 231 225 220 218 211
198 202 214 217 227 235 240 241 244 247 249 252 259 259 261 262 265 267 267 267 266 267 267 268 269 269 269 268 274 279 281 281 277 272 271 269 267 266 264 265 264 264 263 259 259 258 265 269 275 275 276 276 280 282 279 278 278 277 275 274 276 274 274 270 261 252 253 253 252 254 255 256 257 256 252 251 251 250 246 238 229 223 218 215 210
195 204 213 221 224 236 241 245 247 251 253 256 258 262 264 265 266 266 266 266 267 268 269 268 267 266 268 272 279 285 282 275 265 267 268 266 268 265 265 265 265 265 264 262 259 260 261 266 270 277 271 277 281 274 278 279 281 279 274 268 267 266 272 278 267 256 252 249 251 251 251 250 252 254 250 248 248 247 247 238 228 222 217 213 209
193 206 214 219 230 236 244 247 248 252 256 258 260 263 263 262 265 266 271 273 272 272 272 275 279 280 279 277 276 272 262 262 262 259 262 264 261 264 261 264 262 263 264 262 261 261 261 264 266 266 273 272 276 283 279 271 267 264 271 275 274 268 266 265 265 254 248 249 247 250 254 258 258 255 241 237 238 240 241 238 227 220 214 211 206
196 208 213 221 232 238 244 246 249 251 256 256 259 259 262 267 270 272 274 278 281 281 278 274 272 270 268 268 268 266 263 263 263 258 262 262 261 261 260 261 263 263 261 262 262 260 260 263 261 268 264 270 275 275 282 282 269 263 250 254 266 273 269 262 248 243 240 244 249 255 252 254 256 257 256 253 246 238 236 234 227 217 213 206 204
197 206 214 224 235 242 242 241 245 252 252 255 254 254 262 270 272 279 281 278 277 279 277 276 275 271 270 269 266 265 261 263 262 265 261 262 259 259 258 252 256 258 259 260 263 260 263 259 263 265 264 269 273 278 279 275 276 276 277 257 256 261 261 256 247 240 245 250 253 255 258 254 253 251 246 239 235 233 232 229 225 216 208 202 199
198 205 214 229 236 239 241 241 245 249 251 253 254 258 264 270 280 283 284 283 282 278 279 280 276 275 273 272 272 271 274 274 276 277 276 274 270 265 258 249 251 248 250 250 251 248 247 256 256 254 264 262 262 272 276 276 281 285 287 288 286 274 251 245 248 243 240 249 257 255 252 246 246 251 243 239 240 221 227 220 220 214 205 198 199
200 206 217 229 232 233 232 238 249 254 257 254 258 264 271 279 285 287 285 285 281 283 282 280 284 284 283 281 281 282 281 281 280 280 279 278 276 274 272 267 262 257 252 249 243 237 248 248 248 254 250 262 267 271 272 279 280 274 274 278 278 274 260 257 258 259 231 248 255 273 282 282 272 260 250 241 237 232 220 220 213 208 201 197 195
201 204 218 227 232 233 232 237 248 257 263 264 271 276 283 287 289 288 288 289 289 286 284 285 286 290 288 288 287 283 284 282 285 284 282 280 279 276 275 273 271 268 266 261 259 254 249 254 255 251 258 265 269 269 273 276 280 283 279 282 286 292 285 280 278 269 293 11 330 314 294 282 271 266 268 255 246 239 225 219 211 206 197 195 194
197 210 221 229 229 229 234 235 247 259 266 272 277 285 290 293 293 295 291 290 287 285 289 289 288 288 287 290 293 292 286 287 286 281 279 277 277 278 277 278 276 273 271 270 268 267 264 262 262 262 257 264 266 273 271 270 274 276 284 285 282 283 284 281 277 286 294 4 308 288 285 279 261 261 267 263 252 242 230 214 211 203 200 194 192
203 217 226 229 231 231 229 238 255 262 269 275 283 292 297 298 299 300 293 293 291 291 290 289 290 290 290 293 293 287 289 289 284 281 279 277 277 274 272 269 270 271 273 274 273 271 270 268 267 266 265 265 267 269 271 267 267 267 271 272 278 282 283 281 289 289 289 298 274 274 271 272 248 256 260 274 268 256 235 216 206 202 199 194 191
203 215 224 226 228 222 233 241 248 263 266 277 290 298 300 301 303 306 301 298 293 290 290 290 288 288 292 288 285 288 288 283 279 285 280 280 277 273 270 268 264 262 262 264 264 261 263 260 262 260 260 258 261 263 262 263 260 262 263 267 271 278 288 291 284 275 279 256 244 235 256 272 279 273 272 276 284 262 237 214 203 199 197 194 190
206 220 232 227 227 228 231 235 245 262 273 288 298 301 302 306 309 309 303 299 298 295 293 288 288 291 286 283 285 286 282 285 289 289 291 287 282 278 273 269 267 263 259 260 263 266 266 263 259 257 253 252 251 252 250 256 259 258 262 262 262 264 269 273 275 279 266 232 209 221 258 278 263 272 283 285 277 263 228 214 201 197 195 192 189
207 221 222 230 227 229 233 236 248 266 278 292 297 302 307 311 314 308 307 303 300 298 291 293 294 289 286 285 286 285 292 293 295 297 295 294 287 282 279 276 272 267 264 264 260 265 266 266 267 262 256 253 246 248 253 256 260 258 256 256 252 252 257 262 267 268 264 229 225 228 257 276 260 249 283 276 270 254 224 205 198 196 192 190 187
210 214 224 231 233 232 236 240 251 269 280 288 295 303 309 311 314 312 310 307 302 298 298 298 293 288 291 294 296 298 298 297 298 297 297 297 293 290 288 286 285 280 276 269 268 262 262 262 266 265 267 263 258 258 261 262 262 259 252 254 260 259 254 253 263 263 266 250 260 232 251 247 280 249 275 281 269 250 219 199 191 191 190 188 185
215 218 223 230 234 247 244 247 261 275 274 279 293 302 308 312 317 315 311 307 302 300 301 296 295 299 297 301 300 299 298 299 300 300 300 299 292 288 285 282 280 277 275 276 273 272 269 267 264 259 260 258 257 255 254 258 263 257 250 250 256 257 256 255 253 260 268 255 248 207 259 304 339 295 325 296 283 246 209 192 186 184 185 184 183